[[{"header":{"parameterUnit":"m.s-1","parameterCategory":1,"la1":30.2991,"la2":30.254,"lo1":-89.0895,"lo2":-89.0444,"dy":0.0017,"dx":0.0017,"nx":28,"ny":28,"refTime":"2025-09-12T09:00:00:Z","depth":0,"parameterNumber":2,"parameterNumberName":"U-component_of_WINDS"},"data":[0,0,0,0,0,0,0,0,0,0,0,0,0,0,0,0,0,0,0,0,0,0,0,0,0,0,0,0,0,0,0,0,0,0,0,0,0,0,0,0,0,0,0,0,0,0,0,0,0,0,0,0,0,0,0,0,0,0,-1.607,-1.6069,0,-1.6051,-1.605,-1.605,-1.6002,-1.6001,-1.6,-1.5999,-1.5981,-1.5982,-1.5982,0,0,0,0,0,0,0,0,0,0,0,0,0,-1.6067,-1.6068,-1.607,-1.6069,-1.6069,-1.6051,-1.605,-1.605,-1.6002,-1.6001,-1.6,-1.5998,-1.5981,-1.5981,-1.5982,0,0,0,0,0,0,0,0,0,0,0,0,0,-1.6061,-1.6068,-1.607,-1.6043,-1.604,-1.6051,-1.605,-1.605,-1.6002,-1.6001,-1.5999,-1.5998,-1.5981,-1.5981,-1.5982,-1.6017,0,0,-1.5984,-1.5985,0,0,0,0,0,0,0,0,-1.6061,-1.6061,-1.6047,-1.6045,-1.6042,-1.6027,-1.6043,-1.6039,-1.6003,-1.6017,-1.5999,-1.5997,-1.5998,-1.5997,-1.5997,-1.6017,-1.6016,-1.5984,-1.5985,-1.5985,-1.5985,0,0,0,0,0,0,0,-1.6062,-1.6061,-1.6062,-1.6047,-1.6044,-1.6033,-1.603,-1.6042,-1.6016,-1.6016,-1.6012,-1.601,-1.5996,-1.5996,-1.5996,-1.6016,-1.5984,-1.5985,-1.5985,-1.5986,-1.6066,-1.6068,0,0,0,0,0,0,-1.6066,-1.6062,-1.6063,-1.6062,-1.6048,-1.6034,-1.6031,-1.6033,-1.6016,-1.6012,-1.6012,-1.6008,-1.5996,-1.5995,-1.5995,-1.6037,-1.5985,-1.5986,-1.5986,-1.6064,-1.6067,-1.6068,0,0,0,0,0,0,-1.6066,-1.6066,-1.6064,-1.6061,-1.606,-1.6036,-1.6039,-1.6034,-1.6034,-1.6013,-1.6008,-1.6016,-1.5995,-1.5994,-1.6013,-1.6035,-1.5986,-1.5987,-1.6062,-1.6065,-1.6067,-1.6119,0,0,0,0,0,0,-1.6066,-1.6066,-1.6079,-1.6061,-1.606,-1.608,-1.604,-1.6035,-1.6035,-1.603,-1.6016,-1.6012,-1.5993,-1.6012,-1.6014,-1.6036,-1.5987,-1.606,-1.6064,-1.6067,-1.6116,-1.6123,-1.613,0,0,0,0,0,-1.6066,-1.6094,-1.6079,-1.608,-1.6075,-1.6082,-1.6081,-1.6058,-1.6037,-1.605,-1.6037,-1.6013,-1.6033,-1.6014,-1.6016,-1.6038,-1.6059,-1.6063,-1.6066,-1.6112,-1.6122,-1.613,0,0,0,0,0,0,-1.6114,-1.6091,-1.6075,-1.6098,-1.6092,-1.6074,-1.6089,-1.6069,-1.6069,-1.6065,-1.6037,-1.6034,-1.6057,-1.6049,-1.6029,-1.6073,-1.6042,-1.6046,-1.6077,-1.6086,-1.6093,-1.6094,-1.5988,0,0,0,0,0,-1.6127,-1.6134,-1.6114,-1.6137,-1.6135,-1.6113,-1.6115,-1.6098,-1.6091,-1.6088,-1.6076,-1.6072,-1.6077,-1.6081,-1.6084,-1.6115,-1.6112,-1.6131,-1.6139,-1.6145,-1.6149,-1.6166,-1.6175,-1.6081,-1.6081,-1.6081,0,0,-1.6155,-1.6143,-1.6149,-1.6146,-1.6139,-1.6149,-1.6111,-1.6121,-1.6128,-1.609,-1.6107,-1.6099,-1.6091,-1.6117,-1.6127,-1.6111,-1.6174,-1.615,-1.6155,-1.6155,-1.6171,-1.618,-1.6188,-1.6084,-1.6083,-1.6083,0,0,-1.621,-1.6201,-1.6219,-1.6214,-1.6205,-1.6191,-1.6196,-1.6181,-1.6174,-1.619,-1.6163,-1.6171,-1.618,-1.6177,-1.6176,-1.6233,-1.6212,-1.6235,-1.6273,-1.6291,-1.6298,-1.6304,-1.6326,-1.6334,-1.6239,-1.6239,-1.6239,0,-1.6245,-1.6257,-1.6232,-1.6245,-1.6245,-1.6211,-1.6231,-1.6227,-1.622,-1.6222,-1.6204,-1.6217,-1.6209,-1.6234,-1.6248,-1.6249,-1.6254,-1.6236,-1.6299,-1.6305,-1.6311,-1.6331,-1.6339,-1.6242,-1.6242,-1.6242,-1.6241,0,-1.6301,-1.631,-1.6326,-1.6321,-1.6323,-1.6339,-1.6318,-1.6323,-1.6307,-1.6295,-1.6314,-1.6304,-1.6306,-1.6311,-1.6295,-1.6334,-1.6325,-1.6304,-1.6272,-1.6323,-1.6342,-1.6349,-1.6247,-1.6246,-1.6245,-1.6244,0,0,-1.6384,-1.6366,-1.6373,-1.6371,-1.6359,-1.6366,-1.6382,-1.6384,-1.639,-1.6387,-1.6401,-1.6411,-1.6391,-1.6391,-1.6375,-1.639,-1.6437,-1.6367,-1.6366,-1.6381,-1.6482,-1.6499,-1.6508,-1.6424,-1.6425,-1.6426,-1.6483,0,-1.6437,-1.6461,-1.6441,-1.647,-1.6479,-1.6449,-1.6463,-1.6458,-1.6448,-1.6455,-1.6444,-1.6452,-1.6426,-1.6426,-1.644,-1.6429,-1.6458,-1.6424,-1.6437,-1.6438,-1.644,-1.6517,-1.6534,-1.6588,-1.649,-1.6491,-1.6492,0,-1.65,-1.6501,-1.6531,-1.652,-1.6523,-1.6536,-1.6537,-1.6544,-1.6539,-1.6531,-1.6532,-1.6512,-1.6529,-1.6498,-1.6522,-1.65,-1.6504,-1.65,-1.6501,-1.6502,-1.6468,-1.652,-1.6605,-1.6614,-1.6503,-1.6502,-1.6502,0,-1.6559,-1.6567,-1.6587,-1.6586,-1.6573,-1.6583,-1.6579,-1.6572,-1.6576,-1.6577,-1.658,-1.6583,-1.6586,-1.659,-1.6572,-1.6552,-1.6599,-1.6566,-1.6593,-1.6594,-1.6604,-1.6604,-1.6691,-1.6607,-1.6607,-1.6607,-1.6606,0,-1.662,-1.664,-1.6613,-1.6625,-1.6648,-1.6625,-1.6648,-1.664,-1.6635,-1.6647,-1.6621,-1.6632,-1.6608,-1.6618,-1.6605,-1.6627,-1.6628,-1.6623,-1.6619,-1.6625,-1.6626,-1.6627,-1.6623,-1.6609,-1.6608,-1.6608,-1.6607,0,-1.6689,-1.6672,-1.6691,-1.6678,-1.6676,-1.6693,-1.6682,-1.6694,-1.6683,-1.6697,-1.67,-1.6683,-1.6693,-1.6676,-1.6684,-1.6675,-1.6707,-1.6697,-1.6708,-1.6705,-1.6733,-1.6731,-1.6825,-1.6837,-1.6745,-1.6745,-1.6746,0,-1.6728,-1.6743,-1.6732,-1.6738,-1.6735,-1.6744,-1.6747,-1.6726,-1.6731,-1.6728,-1.6741,-1.6749,-1.6754,-1.6772,-1.6761,-1.6768,-1.6758,-1.6791,-1.6759,-1.6765,-1.676,-1.6759,-1.6761,-1.6797,-1.6798,-1.6799,-1.68,0,-1.6801,-1.6793,-1.6798,-1.6802,-1.6807,-1.6809,-1.6809,-1.6815,-1.6793,-1.68,-1.681,-1.6814,-1.6823,-1.6832,-1.6836,-1.6833,-1.6814,-1.681,-1.6817,-1.6823,-1.6829,-1.6827,-1.6726,-1.6808,-1.6807,-1.6807,-1.6806,-1.6806,-1.6857,-1.687,-1.6864,-1.6872,-1.687,-1.6871,-1.6882,-1.6873,-1.6881,-1.6886,-1.6873,-1.6887,-1.6884,-1.6888,-1.6887,-1.6899,-1.6884,-1.6894,-1.6896,-1.6899,-1.6904,-1.6828,-1.6899,-1.6899,-1.6899,-1.6899,-1.6898,0,-1.693,-1.6925,-1.6933,-1.6934,-1.6941,-1.6922,-1.6921,-1.6929,-1.694,-1.6939,-1.6945,-1.6958,-1.6967,-1.6958,-1.6966,-1.6977,-1.6968,-1.698,-1.6979,-1.6978,-1.6916,-1.6909,-1.6986,-1.6986,-1.6986,-1.6986,-1.6986,-1.6986,-1.6968,-1.6988,-1.698,-1.7,-1.6995,-1.7008,-1.701,-1.7012,-1.7011,-1.7026,-1.7033,-1.7027,-1.7023,-1.7031,-1.7039,-1.7037,-1.7041,-1.7056,-1.705,-1.6991,-1.6983,-1.6974,-1.6968,-1.7057,-1.7057,-1.7112,-1.7112,-1.7113]},{"header":{"parameterUnit":"m.s-1","parameterCategory":1,"la1":30.2991,"la2":30.254,"lo1":-89.0895,"lo2":-89.0444,"dy":0.0017,"dx":0.0017,"nx":28,"ny":28,"refTime":"2025-09-12T09:00:00:Z","depth":0,"parameterNumber":3,"parameterNumberName":"V-component_of_WINDS"},"data":[0,0,0,0,0,0,0,0,0,0,0,0,0,0,0,0,0,0,0,0,0,0,0,0,0,0,0,0,0,0,0,0,0,0,0,0,0,0,0,0,0,0,0,0,0,0,0,0,0,0,0,0,0,0,0,0,0,0,3.1614,3.1614,0,3.1598,3.1598,3.1598,3.1622,3.1623,3.1623,3.1624,3.1602,3.1601,3.1599,0,0,0,0,0,0,0,0,0,0,0,0,0,3.166,3.1659,3.1614,3.1614,3.1614,3.1598,3.1598,3.1598,3.1622,3.1623,3.1624,3.1625,3.1602,3.1601,3.1599,0,0,0,0,0,0,0,0,0,0,0,0,0,3.1642,3.1659,3.1614,3.1624,3.1625,3.1598,3.1598,3.1598,3.1621,3.1623,3.1624,3.1625,3.1603,3.1601,3.1599,3.156,0,0,3.1592,3.1592,0,0,0,0,0,0,0,0,3.1643,3.164,3.1623,3.1623,3.1624,3.1614,3.1606,3.1585,3.1621,3.1622,3.1624,3.1626,3.1604,3.1602,3.1596,3.1559,3.1558,3.1592,3.1591,3.159,3.159,0,0,0,0,0,0,0,3.1644,3.1641,3.1608,3.1622,3.1623,3.1628,3.1626,3.1602,3.1606,3.1622,3.1624,3.1622,3.1605,3.1598,3.1596,3.1558,3.1592,3.159,3.1589,3.1588,3.1488,3.1487,0,0,0,0,0,0,3.1645,3.1642,3.1608,3.1607,3.1637,3.1626,3.1624,3.1615,3.1607,3.1607,3.1621,3.1623,3.1601,3.1598,3.1595,3.1549,3.159,3.1588,3.1587,3.149,3.1488,3.1486,0,0,0,0,0,0,3.1646,3.1642,3.1609,3.1625,3.1621,3.1624,3.1613,3.1614,3.1608,3.1606,3.1606,3.1614,3.1602,3.1598,3.1569,3.1548,3.1587,3.1585,3.1491,3.1489,3.1487,3.1456,0,0,0,0,0,0,3.1647,3.1642,3.1628,3.1625,3.162,3.1585,3.1612,3.1613,3.1605,3.1608,3.1599,3.1599,3.1603,3.1572,3.1567,3.1546,3.1584,3.1493,3.149,3.1488,3.1459,3.1453,3.1449,0,0,0,0,0,3.1649,3.1619,3.1628,3.1623,3.1604,3.1583,3.1581,3.1588,3.1603,3.1589,3.1588,3.1599,3.1552,3.1569,3.1564,3.1542,3.1494,3.1491,3.1488,3.1462,3.1455,3.1449,0,0,0,0,0,0,3.1618,3.1619,3.1628,3.1597,3.159,3.1588,3.157,3.158,3.1567,3.157,3.1578,3.1575,3.1544,3.154,3.1559,3.1504,3.1526,3.1521,3.1507,3.1501,3.1495,3.1496,3.1582,0,0,0,0,0,3.1608,3.1593,3.1594,3.1566,3.1563,3.1567,3.1558,3.1565,3.1557,3.1553,3.155,3.1541,3.1524,3.1512,3.1497,3.146,3.1457,3.1442,3.1437,3.1432,3.1427,3.1406,3.1399,3.1476,3.1476,3.1476,0,0,3.1587,3.1585,3.1575,3.156,3.1556,3.1539,3.1564,3.1545,3.1531,3.155,3.1523,3.152,3.151,3.1477,3.1462,3.1472,3.1406,3.1428,3.1425,3.1422,3.1402,3.1395,3.1389,3.1474,3.1474,3.1475,0,0,3.1538,3.1537,3.1513,3.1509,3.1502,3.1505,3.15,3.1496,3.1495,3.1469,3.1482,3.1466,3.1437,3.1429,3.1421,3.1371,3.1381,3.1366,3.1337,3.1317,3.1311,3.1305,3.1286,3.1279,3.1362,3.1362,3.1362,0,3.1511,3.1488,3.1499,3.1479,3.1472,3.149,3.1466,3.146,3.1448,3.1442,3.1455,3.1419,3.1414,3.1378,3.1366,3.136,3.1352,3.1366,3.1311,3.1306,3.1301,3.1282,3.1275,3.136,3.136,3.136,3.136,0,3.1455,3.1438,3.142,3.141,3.1401,3.1378,3.1384,3.1373,3.1381,3.1382,3.1354,3.1349,3.1332,3.1325,3.1331,3.129,3.1297,3.131,3.1332,3.1291,3.1274,3.1267,3.1357,3.1358,3.1358,3.1359,0,0,3.1384,3.1383,3.1375,3.1371,3.1366,3.1353,3.1331,3.1317,3.1307,3.1298,3.1279,3.1255,3.1267,3.1258,3.1264,3.1246,3.1205,3.1262,3.1262,3.125,3.1158,3.1147,3.1139,3.1213,3.1212,3.1211,3.1159,0,3.1335,3.13,3.1309,3.1273,3.1257,3.1275,3.1256,3.125,3.1251,3.1236,3.1236,3.1218,3.1237,3.1232,3.1216,3.1214,3.1187,3.1218,3.1192,3.1191,3.1192,3.113,3.1117,3.1069,3.1152,3.1151,3.115,0,3.1273,3.1264,3.1226,3.1224,3.1218,3.12,3.1188,3.1175,3.1168,3.117,3.1161,3.117,3.1147,3.117,3.1137,3.1159,3.1149,3.1147,3.1145,3.1141,3.1167,3.1122,3.1053,3.1045,3.114,3.1141,3.1141,0,3.1223,3.1202,3.1177,3.1172,3.117,3.1157,3.1155,3.115,3.1141,3.113,3.1124,3.1109,3.1101,3.1089,3.1094,3.1111,3.1059,3.1083,3.1058,3.1058,3.1044,3.1044,3.0971,3.1041,3.1041,3.1042,3.1042,0,3.1166,3.1142,3.1154,3.1138,3.1111,3.1123,3.1095,3.1095,3.1091,3.1074,3.1089,3.1072,3.108,3.1064,3.1067,3.1038,3.1035,3.1034,3.1035,3.1032,3.1031,3.1023,3.1026,3.104,3.104,3.104,3.1041,0,3.1105,3.1113,3.1086,3.1087,3.1087,3.1066,3.1066,3.105,3.1053,3.1032,3.1027,3.1031,3.1012,3.1017,3.0996,3.0998,3.0961,3.0967,3.0964,3.0965,3.0938,3.094,3.0855,3.0844,3.0924,3.0923,3.0922,0,3.1067,3.1049,3.1049,3.1039,3.1037,3.1022,3.1013,3.1024,3.1014,3.1005,3.099,3.0974,3.0961,3.093,3.0929,3.0913,3.0918,3.0889,3.0915,3.0912,3.0915,3.0915,3.0913,3.0883,3.0882,3.0881,3.0881,0,3.0998,3.1004,3.0992,3.0981,3.0971,3.0963,3.0955,3.0947,3.0957,3.0944,3.0927,3.0917,3.0897,3.0879,3.0865,3.0861,3.0871,3.0873,3.0866,3.0861,3.086,3.0858,3.0948,3.0874,3.0875,3.0876,3.0876,3.0876,3.0947,3.0931,3.0929,3.0915,3.0911,3.0904,3.089,3.0892,3.0878,3.0864,3.0871,3.085,3.0843,3.0825,3.0819,3.0802,3.0812,3.0802,3.08,3.0796,3.0792,3.0865,3.08,3.08,3.08,3.08,3.08,0,3.0877,3.0877,3.0864,3.0855,3.0843,3.0858,3.0851,3.084,3.0822,3.0816,3.0804,3.0783,3.0766,3.0765,3.0749,3.0735,3.074,3.0731,3.073,3.0729,3.0785,3.0792,3.0727,3.0727,3.0727,3.0727,3.0727,3.0727,3.0839,3.0814,3.0819,3.0792,3.0791,3.0773,3.0767,3.076,3.0756,3.0732,3.072,3.072,3.0715,3.0699,3.0684,3.0684,3.0677,3.0665,3.0666,3.0718,3.0725,3.0732,3.0739,3.0664,3.0664,3.0612,3.0611,3.0611]}]]